Find Starlink 6306

NORAD ID: 57242 Int'l Des: 2023-094 Owner: SPXS Country: US Constellation: starlink operational
LEOCIRCULAR

实时位置

正在加载3D地球...

关于 Starlink 6306

正在加载描述...

即将过境

Passes for default location (London). Set your location on the main map for personalized predictions.

高度历史

Loading altitude history...

两行轨道根数

1 57242U 23094AA 26104.67157291 -.00010644 00000-0 -38721-3 0 9990
2 57242 43.0028 176.6248 0001660 271.4680 88.5982 15.26780157152745
Epoch: Apr 14, 2026 • Age: 11 hours

当前状态

高度 488.0 km
速度 7.63 km/s
星下点 35.93°N, 29.22°W
发射日期 Jul 7, 2023
运行时间 2.7 years
类型 internet

技术详情

分类 Payload
质量 305.00 kg
干质量 290.00 kg
总质量 305.00 kg
长度 0.20 m
直径 2.80 m
跨度 9.00 m
形状 Box + pan
制造商 SPXS
平台类型 Starlink
阶段状态 In Orbit
所有者/国家 SPXS/US

Most Searched